SCX218 KATL-KFLL

Flight info

Callsign SCX218
Flight time 1h 25m
Altitude 33000
Route KATL SMLTZ3 SMLTZ DCT WALET DCT ZPLEN TEEKY4 KFLL
Aircraft B738/M-VGDW/C

Departure

Time 2026-05-03 21:00
Airport Hartsfield Jackson Atlanta International Airport (KATL)

Arrival

Time 2026-05-03 22:26
Airport Fort Lauderdale Hollywood International Airport (KFLL)
Time Latitude Longitude Altitude Speed Heading
2026-05-03 20:40 33.63905 -84.43322 1010 ft 0 kts 92°
2026-05-03 20:47 33.63906 -84.43360 1010 ft 9 kts 93°
2026-05-03 20:47 33.63913 -84.43424 1010 ft 4 kts 119°
2026-05-03 20:48 33.63923 -84.43434 1010 ft 0 kts 180°
2026-05-03 20:52 33.63919 -84.43435 1010 ft 3 kts 186°
2026-05-03 20:53 33.63873 -84.43447 1010 ft 7 kts 199°
2026-05-03 20:53 33.63828 -84.43458 1010 ft 6 kts 181°
2026-05-03 20:53 33.63800 -84.43459 1010 ft 0 kts 180°
2026-05-03 20:54 33.63736 -84.43396 1010 ft 10 kts 174°
2026-05-03 20:54 33.63672 -84.43358 1010 ft 10 kts 122°
2026-05-03 20:55 33.63663 -84.43265 1009 ft 13 kts 92°
2026-05-03 20:55 33.63664 -84.43126 1007 ft 18 kts 90°
2026-05-03 20:55 33.63662 -84.42979 1006 ft 17 kts 90°
2026-05-03 20:55 33.63663 -84.42831 1003 ft 18 kts 90°
2026-05-03 20:56 33.63654 -84.42674 1000 ft 19 kts 90°
2026-05-03 20:56 33.63655 -84.42508 997 ft 20 kts 90°
2026-05-03 20:56 33.63655 -84.42323 990 ft 23 kts 90°
2026-05-03 20:56 33.63656 -84.42116 983 ft 26 kts 90°
2026-05-03 20:57 33.63657 -84.41885 972 ft 29 kts 91°
2026-05-03 20:57 33.63654 -84.41631 965 ft 30 kts 90°
2026-05-03 20:57 33.63654 -84.41378 962 ft 28 kts 90°
2026-05-03 20:57 33.63654 -84.41185 962 ft 22 kts 90°
2026-05-03 20:58 33.63655 -84.41042 960 ft 17 kts 90°
2026-05-03 20:58 33.63635 -84.40916 956 ft 12 kts 150°
2026-05-03 20:58 33.63580 -84.40908 955 ft 0 kts 180°
2026-05-03 20:58 33.63576 -84.40908 955 ft 0 kts 180°
2026-05-03 20:59 33.63548 -84.40908 955 ft 8 kts 180°
2026-05-03 20:59 33.63486 -84.40918 956 ft 10 kts 213°
2026-05-03 20:59 33.63472 -84.40988 958 ft 9 kts 269°
2026-05-03 20:59 33.63472 -84.41322 962 ft 86 kts 270°
2026-05-03 21:00 33.63472 -84.42417 1035 ft 167 kts 270°
2026-05-03 21:00 33.63484 -84.43386 1453 ft 186 kts 271°
2026-05-03 21:00 33.63482 -84.45611 2276 ft 211 kts 271°
2026-05-03 21:00 33.63481 -84.47510 2795 ft 242 kts 271°
2026-05-03 21:01 33.63479 -84.49519 3309 ft 239 kts 271°
2026-05-03 21:01 33.63479 -84.51509 3834 ft 239 kts 271°
2026-05-03 21:01 33.63479 -84.53497 4368 ft 241 kts 271°
2026-05-03 21:01 33.63475 -84.55491 4900 ft 243 kts 271°
2026-05-03 21:02 33.63471 -84.57510 5432 ft 246 kts 271°
2026-05-03 21:02 33.63467 -84.59705 6009 ft 272 kts 271°
2026-05-03 21:02 33.63463 -84.61968 6539 ft 273 kts 271°
2026-05-03 21:02 33.63334 -84.64208 7062 ft 274 kts 256°
2026-05-03 21:03 33.62412 -84.66193 7638 ft 278 kts 229°
2026-05-03 21:03 33.60839 -84.67557 8203 ft 284 kts 211°
2026-05-03 21:03 33.59108 -84.68752 8742 ft 287 kts 212°
2026-05-03 21:03 33.57207 -84.69503 9286 ft 295 kts 186°
2026-05-03 21:04 33.55165 -84.69284 9850 ft 301 kts 172°
2026-05-03 21:04 33.53070 -84.68879 10192 ft 303 kts 173°
2026-05-03 21:04 33.50997 -84.68488 10787 ft 302 kts 173°
2026-05-03 21:04 33.48894 -84.68092 11380 ft 305 kts 173°
2026-05-03 21:05 33.46818 -84.67701 11958 ft 308 kts 173°
2026-05-03 21:05 33.44687 -84.67299 12552 ft 310 kts 173°
2026-05-03 21:05 33.42577 -84.66761 13140 ft 321 kts 160°
2026-05-03 21:05 33.40600 -84.65226 13805 ft 353 kts 137°
2026-05-03 21:06 33.38864 -84.63110 14453 ft 366 kts 136°
2026-05-03 21:06 33.37042 -84.60932 15057 ft 367 kts 136°
2026-05-03 21:06 33.35230 -84.58788 15649 ft 369 kts 137°
2026-05-03 21:06 33.33411 -84.56640 16242 ft 371 kts 137°
2026-05-03 21:07 33.31541 -84.54435 16860 ft 389 kts 137°
2026-05-03 21:07 33.29558 -84.52097 17496 ft 407 kts 137°
2026-05-03 21:07 33.27531 -84.49707 18106 ft 411 kts 137°
2026-05-03 21:07 33.25520 -84.47337 18710 ft 411 kts 137°
2026-05-03 21:08 33.23463 -84.44916 19332 ft 415 kts 137°
2026-05-03 21:08 33.21404 -84.42495 19950 ft 419 kts 137°
2026-05-03 21:08 33.19341 -84.40076 20567 ft 423 kts 138°
2026-05-03 21:08 33.17236 -84.37604 21198 ft 427 kts 137°
2026-05-03 21:09 33.15099 -84.35096 21835 ft 431 kts 138°
2026-05-03 21:09 33.12974 -84.32605 22455 ft 435 kts 139°
2026-05-03 21:09 33.10791 -84.30049 23086 ft 439 kts 139°
2026-05-03 21:09 33.08598 -84.27480 23711 ft 443 kts 139°
2026-05-03 21:10 33.06411 -84.24921 24323 ft 447 kts 139°
2026-05-03 21:10 33.04162 -84.22292 24947 ft 454 kts 140°
2026-05-03 21:10 33.01916 -84.19666 25546 ft 458 kts 140°
2026-05-03 21:10 32.99441 -84.17375 26129 ft 453 kts 156°
2026-05-03 21:11 32.96533 -84.15934 26757 ft 450 kts 166°
2026-05-03 21:11 32.93600 -84.14690 27349 ft 453 kts 167°
2026-05-03 21:11 32.90581 -84.13436 27960 ft 461 kts 167°
2026-05-03 21:11 32.87532 -84.12178 28570 ft 469 kts 167°
2026-05-03 21:12 32.84434 -84.10900 29157 ft 476 kts 167°
2026-05-03 21:12 32.81292 -84.09610 29774 ft 483 kts 168°
2026-05-03 21:12 32.78072 -84.08286 30384 ft 484 kts 168°
2026-05-03 21:12 32.74934 -84.06995 30979 ft 479 kts 168°
2026-05-03 21:13 32.71779 -84.05696 31584 ft 472 kts 169°
2026-05-03 21:13 32.68650 -84.04414 32201 ft 469 kts 169°
2026-05-03 21:13 32.65522 -84.03131 32810 ft 465 kts 169°
2026-05-03 21:13 32.62463 -84.01884 32979 ft 467 kts 169°
2026-05-03 21:14 32.56255 -83.99350 33003 ft 465 kts 170°
2026-05-03 21:14 32.50133 -83.96844 33005 ft 463 kts 170°
2026-05-03 21:15 32.44004 -83.94348 33007 ft 463 kts 170°
2026-05-03 21:15 32.37872 -83.91852 33003 ft 465 kts 170°
2026-05-03 21:16 32.31764 -83.89513 33013 ft 459 kts 173°
2026-05-03 21:16 32.25619 -83.87381 32991 ft 460 kts 172°
2026-05-03 21:17 32.20550 -83.85569 32993 ft 459 kts 173°
2026-05-03 21:17 32.13390 -83.83008 32988 ft 459 kts 172°
2026-05-03 21:18 32.07278 -83.80823 32979 ft 459 kts 172°
2026-05-03 21:18 32.01203 -83.78657 32979 ft 459 kts 173°
2026-05-03 21:19 31.95092 -83.76478 32977 ft 459 kts 172°
2026-05-03 21:19 31.88946 -83.74292 32987 ft 459 kts 173°
2026-05-03 21:20 31.82849 -83.72124 32990 ft 459 kts 173°
2026-05-03 21:20 31.76711 -83.69949 32996 ft 458 kts 173°
2026-05-03 21:21 31.70630 -83.67792 32994 ft 458 kts 172°
2026-05-03 21:21 31.64539 -83.65494 32998 ft 460 kts 171°
2026-05-03 21:22 31.58449 -83.63161 33001 ft 460 kts 171°
2026-05-03 21:22 31.52397 -83.60834 33008 ft 460 kts 171°
2026-05-03 21:23 31.46320 -83.58508 33015 ft 459 kts 171°
2026-05-03 21:23 31.40209 -83.56172 33020 ft 459 kts 171°
2026-05-03 21:24 31.34112 -83.53844 33016 ft 458 kts 171°
2026-05-03 21:24 31.28046 -83.51528 33013 ft 458 kts 171°
2026-05-03 21:25 31.21928 -83.49200 33007 ft 461 kts 171°
2026-05-03 21:25 31.15837 -83.46884 32996 ft 461 kts 171°
2026-05-03 21:26 31.09751 -83.44571 32996 ft 457 kts 171°
2026-05-03 21:26 31.03678 -83.42268 32998 ft 460 kts 171°
2026-05-03 21:27 30.97588 -83.39960 33004 ft 461 kts 171°
2026-05-03 21:27 30.91472 -83.37653 33002 ft 460 kts 171°
2026-05-03 21:28 30.85384 -83.35349 33015 ft 461 kts 171°
2026-05-03 21:28 30.79290 -83.33048 32993 ft 460 kts 172°
2026-05-03 21:29 30.73207 -83.30757 32991 ft 461 kts 172°
2026-05-03 21:29 30.67207 -83.27872 32994 ft 471 kts 165°
2026-05-03 21:30 30.61265 -83.24668 32983 ft 469 kts 165°
2026-05-03 21:30 30.55367 -83.21496 32971 ft 468 kts 165°
2026-05-03 21:31 30.49421 -83.18301 32967 ft 468 kts 165°
2026-05-03 21:31 30.43439 -83.15089 32955 ft 472 kts 165°
2026-05-03 21:32 30.37506 -83.11910 32957 ft 470 kts 165°
2026-05-03 21:32 30.31583 -83.08738 32955 ft 469 kts 165°
2026-05-03 21:33 30.25646 -83.05566 32948 ft 475 kts 165°
2026-05-03 21:33 30.19666 -83.02375 32953 ft 471 kts 165°
2026-05-03 21:34 30.13723 -82.99205 32946 ft 469 kts 166°
2026-05-03 21:34 30.07764 -82.96033 32950 ft 470 kts 166°
2026-05-03 21:35 30.01792 -82.92862 32950 ft 473 kts 166°
2026-05-03 21:35 29.95788 -82.89674 32940 ft 470 kts 166°
2026-05-03 21:36 29.89846 -82.86521 32941 ft 471 kts 166°
2026-05-03 21:36 29.83900 -82.83369 32930 ft 469 kts 166°
2026-05-03 21:37 29.77963 -82.80232 32945 ft 472 kts 166°
2026-05-03 21:37 29.71944 -82.77053 32941 ft 473 kts 166°
2026-05-03 21:38 29.65972 -82.73902 32957 ft 471 kts 166°
2026-05-03 21:38 29.60008 -82.70760 32936 ft 468 kts 166°
2026-05-03 21:39 29.54121 -82.67662 32936 ft 467 kts 167°
2026-05-03 21:39 29.48160 -82.64529 32943 ft 467 kts 167°
2026-05-03 21:40 29.42226 -82.61420 32930 ft 471 kts 167°
2026-05-03 21:40 29.36276 -82.58300 32938 ft 470 kts 167°
2026-05-03 21:41 29.30372 -82.55210 32954 ft 470 kts 167°
2026-05-03 21:41 29.24342 -82.52866 32935 ft 435 kts 186°
2026-05-03 21:42 29.18392 -82.52741 32959 ft 427 kts 191°
2026-05-03 21:42 29.12430 -82.52718 32940 ft 429 kts 191°
2026-05-03 21:43 29.06433 -82.52713 32948 ft 430 kts 191°
2026-05-03 21:43 29.00504 -82.52710 32959 ft 424 kts 191°
2026-05-03 21:44 28.94553 -82.52707 32954 ft 429 kts 191°
2026-05-03 21:44 28.88594 -82.52711 32965 ft 428 kts 191°
2026-05-03 21:45 28.82673 -82.52702 32959 ft 423 kts 191°
2026-05-03 21:45 28.76745 -82.52702 32965 ft 426 kts 191°
2026-05-03 21:46 28.70812 -82.52700 32962 ft 424 kts 191°
2026-05-03 21:46 28.64882 -82.52692 32964 ft 427 kts 191°
2026-05-03 21:47 28.58956 -82.52694 32962 ft 426 kts 191°
2026-05-03 21:47 28.53015 -82.52685 32956 ft 428 kts 191°
2026-05-03 21:48 28.47065 -82.52682 32969 ft 427 kts 191°
2026-05-03 21:48 28.41159 -82.52681 32961 ft 424 kts 192°
2026-05-03 21:49 28.35192 -82.52679 32953 ft 429 kts 191°
2026-05-03 21:49 28.29206 -82.52673 32959 ft 425 kts 191°
2026-05-03 21:50 28.23274 -82.52675 32949 ft 427 kts 191°
2026-05-03 21:50 28.17289 -82.52671 32954 ft 427 kts 191°
2026-05-03 21:51 28.11371 -82.52662 32954 ft 427 kts 192°
2026-05-03 21:51 28.05369 -82.52664 32954 ft 430 kts 191°
2026-05-03 21:52 27.99416 -82.52425 32941 ft 443 kts 180°
2026-05-03 21:52 27.93407 -82.50351 32960 ft 458 kts 175°
2026-05-03 21:53 27.87275 -82.48174 32963 ft 457 kts 175°
2026-05-03 21:53 27.81193 -82.46017 32965 ft 460 kts 175°
2026-05-03 21:54 27.75138 -82.43871 32964 ft 455 kts 175°
2026-05-03 21:54 27.69039 -82.41713 32966 ft 460 kts 174°
2026-05-03 21:55 27.62894 -82.39548 32961 ft 463 kts 174°
2026-05-03 21:55 27.56724 -82.37363 32959 ft 461 kts 174°
2026-05-03 21:56 27.50595 -82.35207 32957 ft 460 kts 174°
2026-05-03 21:56 27.44575 -82.33082 32941 ft 450 kts 175°
2026-05-03 21:57 27.38550 -82.30959 32725 ft 457 kts 173°
2026-05-03 21:57 27.35591 -82.29319 32605 ft 475 kts 162°
2026-05-03 21:57 27.32730 -82.27500 32478 ft 476 kts 162°
2026-05-03 21:58 27.29826 -82.25654 32349 ft 477 kts 161°
2026-05-03 21:58 27.26970 -82.23840 32216 ft 476 kts 161°
2026-05-03 21:58 27.24059 -82.21993 32076 ft 477 kts 161°
2026-05-03 21:58 27.21178 -82.20163 31940 ft 476 kts 161°
2026-05-03 21:59 27.18291 -82.18335 31751 ft 477 kts 161°
2026-05-03 21:59 27.15383 -82.16493 31502 ft 479 kts 161°
2026-05-03 21:59 27.12506 -82.14672 31253 ft 477 kts 160°
2026-05-03 21:59 27.09634 -82.12853 31013 ft 477 kts 160°
2026-05-03 22:00 27.06731 -82.11018 30760 ft 475 kts 160°
2026-05-03 22:00 27.03871 -82.09212 30516 ft 472 kts 160°
2026-05-03 22:00 27.01008 -82.07404 30273 ft 476 kts 160°
2026-05-03 22:00 26.98122 -82.05583 30024 ft 478 kts 159°
2026-05-03 22:01 26.95344 -82.03378 29643 ft 498 kts 144°
2026-05-03 22:01 26.92951 -82.00573 29290 ft 493 kts 141°
2026-05-03 22:01 26.90659 -81.97846 28892 ft 480 kts 141°
2026-05-03 22:01 26.88351 -81.95108 28498 ft 476 kts 141°
2026-05-03 22:02 26.86103 -81.92448 28118 ft 472 kts 141°
2026-05-03 22:02 26.83835 -81.89776 27844 ft 470 kts 140°
2026-05-03 22:02 26.81631 -81.87176 27449 ft 457 kts 140°
2026-05-03 22:02 26.79483 -81.84629 27062 ft 440 kts 140°
2026-05-03 22:03 26.77422 -81.82199 26672 ft 426 kts 141°
2026-05-03 22:03 26.75391 -81.79833 26275 ft 412 kts 141°
2026-05-03 22:03 26.73463 -81.77586 25883 ft 400 kts 141°
2026-05-03 22:03 26.71560 -81.75375 25492 ft 390 kts 141°
2026-05-03 22:04 26.69672 -81.73183 25108 ft 388 kts 141°
2026-05-03 22:04 26.67822 -81.71034 24743 ft 388 kts 141°
2026-05-03 22:04 26.65951 -81.68863 24375 ft 387 kts 141°
2026-05-03 22:04 26.64101 -81.66713 24043 ft 382 kts 141°
2026-05-03 22:05 26.62360 -81.64451 24005 ft 386 kts 133°
2026-05-03 22:05 26.60735 -81.62030 24004 ft 389 kts 133°
2026-05-03 22:05 26.59110 -81.59615 23743 ft 393 kts 133°
2026-05-03 22:05 26.57470 -81.57174 23368 ft 390 kts 133°
2026-05-03 22:06 26.55856 -81.54775 23006 ft 385 kts 133°
2026-05-03 22:06 26.54265 -81.52410 22648 ft 381 kts 133°
2026-05-03 22:06 26.52680 -81.50058 22256 ft 379 kts 133°
2026-05-03 22:06 26.51086 -81.47692 21834 ft 376 kts 133°
2026-05-03 22:07 26.49518 -81.45366 21413 ft 374 kts 133°
2026-05-03 22:07 26.47971 -81.43073 20999 ft 371 kts 133°
2026-05-03 22:07 26.46423 -81.40778 20577 ft 368 kts 133°
2026-05-03 22:07 26.44892 -81.38514 20158 ft 365 kts 133°
2026-05-03 22:08 26.43378 -81.36272 19734 ft 362 kts 133°
2026-05-03 22:08 26.41859 -81.34029 19303 ft 359 kts 133°
2026-05-03 22:08 26.40333 -81.31883 18854 ft 350 kts 136°
2026-05-03 22:08 26.38802 -81.29839 18388 ft 339 kts 136°
2026-05-03 22:09 26.37303 -81.27839 17956 ft 337 kts 136°
2026-05-03 22:09 26.35814 -81.25845 17514 ft 335 kts 136°
2026-05-03 22:09 26.34305 -81.23835 17070 ft 334 kts 135°
2026-05-03 22:10 26.31359 -81.19894 16210 ft 329 kts 135°
2026-05-03 22:10 26.29906 -81.17960 15769 ft 326 kts 135°
2026-05-03 22:10 26.28461 -81.16035 15329 ft 324 kts 135°
2026-05-03 22:10 26.27017 -81.14133 14897 ft 321 kts 135°
2026-05-03 22:11 26.25593 -81.12257 14468 ft 318 kts 135°
2026-05-03 22:11 26.24157 -81.10373 14018 ft 315 kts 135°
2026-05-03 22:11 26.22753 -81.08521 13586 ft 313 kts 135°
2026-05-03 22:11 26.21349 -81.06677 13152 ft 311 kts 134°
2026-05-03 22:12 26.19962 -81.04855 12718 ft 308 kts 134°
2026-05-03 22:12 26.18532 -81.03133 12292 ft 305 kts 135°
2026-05-03 22:12 26.17307 -81.01210 11899 ft 307 kts 123°
2026-05-03 22:12 26.16600 -80.98948 11505 ft 312 kts 103°
2026-05-03 22:13 26.15693 -80.96818 11125 ft 302 kts 133°
2026-05-03 22:13 26.14216 -80.95197 10736 ft 301 kts 134°
2026-05-03 22:13 26.13239 -80.93139 10352 ft 306 kts 107°
2026-05-03 22:13 26.12999 -80.90803 9965 ft 305 kts 96°
2026-05-03 22:14 26.12794 -80.88480 9522 ft 304 kts 98°
2026-05-03 22:14 26.12525 -80.86125 8974 ft 302 kts 99°
2026-05-03 22:14 26.12238 -80.83891 8462 ft 290 kts 100°
2026-05-03 22:14 26.11943 -80.81709 7947 ft 281 kts 100°
2026-05-03 22:15 26.11649 -80.79594 7434 ft 274 kts 101°
2026-05-03 22:15 26.11273 -80.77528 6926 ft 273 kts 102°
2026-05-03 22:15 26.10949 -80.75475 6528 ft 270 kts 102°
2026-05-03 22:15 26.10615 -80.73418 6240 ft 268 kts 102°
2026-05-03 22:16 26.10275 -80.71388 5947 ft 266 kts 102°
2026-05-03 22:16 26.09949 -80.69411 5651 ft 252 kts 102°
2026-05-03 22:16 26.09642 -80.67584 5389 ft 235 kts 101°
2026-05-03 22:16 26.09345 -80.65835 5081 ft 223 kts 101°
2026-05-03 22:17 26.09080 -80.64232 4979 ft 202 kts 101°
2026-05-03 22:17 26.08820 -80.62696 4973 ft 205 kts 101°
2026-05-03 22:17 26.08559 -80.61140 4964 ft 204 kts 101°
2026-05-03 22:17 26.08293 -80.59570 4966 ft 206 kts 101°
2026-05-03 22:18 26.08027 -80.57992 4984 ft 206 kts 101°
2026-05-03 22:18 26.07764 -80.56436 4962 ft 204 kts 101°
2026-05-03 22:18 26.07496 -80.54858 4965 ft 207 kts 101°
2026-05-03 22:18 26.07231 -80.53301 4974 ft 206 kts 101°
2026-05-03 22:19 26.06962 -80.51719 4973 ft 206 kts 101°
2026-05-03 22:19 26.06747 -80.50158 4971 ft 205 kts 91°
2026-05-03 22:19 26.06750 -80.48564 4914 ft 208 kts 90°
2026-05-03 22:19 26.06750 -80.46961 4774 ft 205 kts 90°
2026-05-03 22:20 26.06746 -80.45367 4617 ft 205 kts 90°
2026-05-03 22:20 26.06742 -80.43813 4446 ft 202 kts 89°
2026-05-03 22:20 26.06737 -80.42247 4258 ft 201 kts 90°
2026-05-03 22:20 26.06723 -80.40716 4061 ft 199 kts 89°
2026-05-03 22:21 26.06722 -80.39168 3852 ft 198 kts 89°
2026-05-03 22:21 26.06708 -80.37652 3634 ft 196 kts 89°
2026-05-03 22:21 26.06707 -80.36133 3409 ft 195 kts 89°
2026-05-03 22:21 26.06700 -80.34642 3184 ft 193 kts 89°
2026-05-03 22:22 26.06685 -80.33145 2944 ft 191 kts 89°
2026-05-03 22:22 26.06675 -80.31680 2735 ft 191 kts 89°
2026-05-03 22:22 26.06671 -80.30210 2485 ft 190 kts 88°
2026-05-03 22:22 26.06659 -80.28741 2237 ft 188 kts 88°
2026-05-03 22:23 26.06648 -80.27306 2019 ft 186 kts 88°
2026-05-03 22:23 26.06650 -80.25880 1766 ft 180 kts 87°
2026-05-03 22:23 26.06637 -80.24530 1518 ft 171 kts 87°
2026-05-03 22:23 26.06632 -80.23201 1295 ft 173 kts 87°
2026-05-03 22:24 26.06624 -80.21856 1066 ft 173 kts 87°
2026-05-03 22:24 26.06617 -80.20513 840 ft 170 kts 88°
2026-05-03 22:24 26.06608 -80.19288 634 ft 148 kts 88°
2026-05-03 22:24 26.06602 -80.18227 434 ft 129 kts 88°
2026-05-03 22:25 26.06598 -80.17242 287 ft 127 kts 88°
2026-05-03 22:25 26.06593 -80.16276 114 ft 125 kts 88°
2026-05-03 22:25 26.06587 -80.15318 12 ft 115 kts 88°
2026-05-03 22:25 26.06584 -80.14616 11 ft 64 kts 90°
2026-05-03 22:26 26.06582 -80.14307 11 ft 17 kts 87°
2026-05-03 22:26 26.06598 -80.14262 11 ft 13 kts 43°
2026-05-03 22:26 26.06679 -80.14246 11 ft 0 kts 297°
2026-05-03 22:27 26.06681 -80.14252 11 ft 1 kts 291°
2026-05-03 22:27 26.06683 -80.14259 11 ft 0 kts 288°
2026-05-03 22:28 26.06687 -80.14285 11 ft 10 kts 275°
2026-05-03 22:29 26.06690 -80.14380 11 ft 12 kts 272°
2026-05-03 22:29 26.06692 -80.14470 11 ft 11 kts 272°
2026-05-03 22:29 26.06693 -80.14559 11 ft 11 kts 271°
2026-05-03 22:29 26.06694 -80.14645 11 ft 10 kts 270°
2026-05-03 22:30 26.06694 -80.14726 11 ft 10 kts 270°
2026-05-03 22:30 26.06694 -80.14803 11 ft 9 kts 270°
2026-05-03 22:30 26.06694 -80.14874 11 ft 7 kts 270°
2026-05-03 22:30 26.06718 -80.14917 11 ft 6 kts 341°
2026-05-03 22:31 26.06758 -80.14905 11 ft 5 kts 50°
2026-05-03 22:31 26.06767 -80.14862 11 ft 6 kts 88°
2026-05-03 22:31 26.06768 -80.14778 11 ft 17 kts 90°
2026-05-03 22:31 26.06766 -80.14637 11 ft 17 kts 89°
2026-05-03 22:32 26.06823 -80.14598 11 ft 12 kts 327°
2026-05-03 22:32 26.06884 -80.14659 11 ft 11 kts 316°
2026-05-03 22:32 26.06941 -80.14718 11 ft 10 kts 324°
2026-05-03 22:32 26.07000 -80.14766 11 ft 10 kts 317°
2026-05-03 22:33 26.07050 -80.14808 11 ft 6 kts 331°
2026-05-03 22:33 26.07089 -80.14796 11 ft 7 kts 72°
2026-05-03 22:33 26.07087 -80.14757 11 ft 3 kts 98°
2026-05-03 22:33 26.07087 -80.14756 11 ft 0 kts 98°